IRIDIUM 60 [+]

Last updated on Sat Mar 02 2019 03:09:08 GMT+0000 (Coordinated Universal Time)

1 25276U 98019E 19060.37511950 .00000093 00000-0 18070-4 0 9998 2 25276 86.3965 26.8842 0006712 172.0435 188.0878 14.51250541 95236

Satellite not in orbit

IRIDIUM 60 [+]